User: anonymous   Login
Location: Fensholt
(55.9856°N, 10.0808°E)
Time: 15:08:21
(UTC+00:00)
Language:

ERS-2 - Orbit

View from above orbital plane
View from above orbital plane
View from above satellite
View from above satellite

Ground track
Ground track

The orbit data is extracted from the following two-line orbital elements,

1 23560U 95021A   21163.08059881  .00000883  00000-0  40222-4 0  9998
2 23560  98.5484  12.4753 0004256  42.6158 317.5406 15.23962120396905
Epoch (UTC): 12 June 2021 01:56:03
Eccentricity: 0.0004256
inclination: 98.5484°
perigee height: 491 km
apogee height: 497 km
right ascension of ascending node: 12.4753°
argument of perigee: 42.6158°
revolutions per day: 15.23962120
mean anomaly at epoch: 317.5406°
orbit number at epoch: 39690

The dashed part of the orbit path shows where the satellite is in the earth's shadow,  

DLR